DW6983 Weather Reports


Display with metric or nautical units.
time (UTC)temp
F
wind
direction
speed
MPH
gust
MPH
rain 1hr
in
rain 24hr
in
rain mn
in
humidity
%
barometer
mb
20260505210229 66 166 3.0 7.0 0.00 0.00 0.00 69 1014.7
20260505204634 66 140 1.0 9.0 0.00 0.00 0.00 69 1014.7
20260505203203 65 159 3.0 8.0 0.00 0.00 0.00 71 1014.9
20260505201635 65 136 1.0 7.0 0.00 0.00 0.00 74 1015.1
20260505200216 64 271 4.0 10.0 0.00 0.00 0.00 74 1015.1
20260505194654 61 286 5.0 8.0 0.00 0.00 0.00 74 1015.1
20260505193150 62 225 0.0 3.0 0.00 0.00 0.00 74 1015.2
20260505191632 61 238 2.0 5.0 0.00 0.00 0.00 74 1015.2
20260505190201 60 248 0.0 4.0 0.00 0.00 0.00 75 1015.3
20260505184615 60 186 0.0 3.0 0.00 0.00 0.00 75 1015.4
20260505183149 60 264 1.0 9.0 0.00 0.00 0.00 78 1015.4
20260505181635 60 265 0.0 0.0 0.00 0.00 0.00 76 1015.2
20260505180205 59 264 0.0 0.0 0.00 0.00 0.00 79 1015.3
20260505174639 58 273 0.0 0.0 0.00 0.00 0.00 79 1015.2
20260505173137 58 273 0.0 0.0 0.00 0.00 0.00 80 1015.2
20260505171626 57 276 0.0 2.0 0.00 0.00 0.00 81 1015.2
20260505170157 57 277 1.0 2.0 0.00 0.00 0.00 81 1015.1
20260505164624 56 277 0.0 3.0 0.00 0.00 0.00 84 1015.1
20260505163101 56 286 0.0 0.0 0.00 0.00 0.00 85 1015.1
20260505161608 55 286 0.0 0.0 0.00 0.00 0.00 86 1015.2
20260505160142 55 286 0.0 0.0 0.00 0.00 0.00 87 1015.2
20260505153131 54 286 0.0 0.0 0.00 0.00 0.00 88 1015.3
20260505151629 53 286 0.0 3.0 0.00 0.00 0.00 90 1015.3
20260505150138 53 284 2.0 5.0 0.00 0.00 0.00 91 1015.1
20260505140151 52 317 0.0 0.0 0.00 0.00 0.00 92 1015.0
20260505130155 52 317 0.0 0.0 0.00 0.00 0.00 92 1014.6
20260505124653 52 317 0.0 0.0 0.00 0.00 0.00 91 1014.6
20260505123139 52 317 0.0 0.0 0.00 0.00 0.00 91 1014.3
20260505121717 53 317 0.0 0.0 0.00 0.00 0.00 90 1014.1
20260505120105 53 317 0.0 0.0 0.00 0.00 0.00 89 1014.2
20260505114638 53 317 0.0 0.0 0.00 0.00 0.00 89 1014.1
20260505113105 53 315 0.0 0.0 0.00 0.00 0.00 89 1014.0
20260505111619 54 315 0.0 0.0 0.00 0.00 0.00 88 1014.0
20260505110142 54 315 0.0 0.0 0.00 0.00 0.00 87 1013.8
20260505101609 54 315 0.0 0.0 0.00 0.00 0.00 85 1013.6
20260505100128 54 315 0.0 0.0 0.00 0.00 0.00 85 1013.6
20260505094635 55 315 0.0 0.0 0.00 0.00 0.00 85 1013.7
20260505093126 55 315 0.0 0.0 0.00 0.00 0.00 85 1013.7
20260505091641 55 315 0.0 0.0 0.00 0.00 0.00 84 1013.7
20260505090138 55 315 0.0 0.0 0.00 0.00 0.00 84 1013.7
20260505084642 55 315 0.0 0.0 0.00 0.00 0.00 84 1013.8
20260505083112 55 315 0.0 0.0 0.00 0.00 0.00 84 1013.8
20260505081650 55 315 0.0 0.0 0.00 0.00 0.00 84 1013.8
20260505080158 55 315 0.0 0.0 0.00 0.00 0.00 83 1014.0
20260505074642 55 315 0.0 0.0 0.00 0.00 0.00 84 1014.0
20260505073156 56 315 0.0 0.0 0.00 0.00 0.00 83 1014.1
20260505071649 56 315 0.0 0.0 0.00 0.00 0.00 83 1014.0
20260505070155 56 315 0.0 0.0 0.00 0.00 0.00 83 1014.1
20260505064658 56 315 0.0 0.0 0.00 0.00 0.00 82 1014.1
20260505063150 56 315 0.0 0.0 0.00 0.00 0.00 82 1014.0
20260505061654 56 315 0.0 0.0 0.00 0.00 0.00 82 1013.8
20260505060153 56 316 0.0 0.0 0.00 0.00 0.00 82 1013.8
20260505054637 56 316 0.0 0.0 0.00 0.00 0.00 81 1013.8
20260505053059 56 316 0.0 0.0 0.00 0.00 0.00 81 1013.6
20260505051643 56 316 0.0 0.0 0.00 0.00 0.00 81 1013.7
20260505050144 56 315 1.0 5.0 0.00 0.00 0.00 81 1013.6
20260505041659 57 334 0.0 4.0 0.00 0.00 0.00 80 1013.2
20260505040213 57 325 1.0 8.0 0.00 0.00 0.00 80 1013.0
20260505034704 57 319 2.0 8.0 0.00 0.00 0.00 80 1012.8
20260505033211 58 324 1.0 9.0 0.00 0.00 0.00 79 1012.5
20260505031648 58 360 4.0 12.0 0.00 0.00 0.00 78 1012.4
20260505030208 59 313 2.0 10.0 0.00 0.00 0.00 76 1012.1
20260505024700 60 324 0.0 9.0 0.00 0.00 0.00 76 1011.9
20260505023209 60 294 2.0 10.0 0.00 0.00 0.00 75 1011.9
20260505021708 61 316 2.0 8.0 0.00 0.00 0.00 73 1011.7
20260505020202 63 341 4.0 11.0 0.00 0.00 0.00 71 1011.5
20260505014703 63 61 5.0 14.0 0.00 0.00 0.00 71 1011.3
20260505013208 64 47 5.0 15.0 0.00 0.00 0.00 69 1011.3
20260505011617 65 355 2.0 16.0 0.00 0.00 0.00 71 1011.2
20260505010210 65 70 2.0 13.0 0.00 0.00 0.00 71 1011.2
20260505004707 66 323 7.0 14.0 0.00 0.00 0.00 68 1011.1
20260505003210 67 67 6.0 13.0 0.00 0.00 0.00 68 1011.0
20260505001631 69 360 3.0 12.0 0.00 0.00 0.00 65 1010.9
20260505000153 69 87 1.0 9.0 0.00 0.00 0.00 67 1011.2
20260504234656 69 52 2.0 7.0 0.00 0.00 0.00 64 1011.2
20260504233252 69 309 2.0 7.0 0.00 0.00 0.00 67 1011.3
20260504231642 70 323 2.0 7.0 0.00 0.00 0.00 65 1011.4
20260504230214 69 355 3.0 9.0 0.00 0.00 0.00 68 1011.4
20260504224707 69 124 0.0 3.0 0.00 0.00 0.00 68 1011.5
20260504223207 69 121 0.0 5.0 0.00 0.00 0.00 70 1011.7
20260504221711 69 240 0.0 3.0 0.00 0.00 0.00 69 1011.8
20260504220220 67 350 0.0 8.0 0.00 0.00 0.00 70 1012.1
20260504214710 67 144 1.0 6.0 0.00 0.00 0.00 71 1012.1
20260504213159 67 130 0.0 6.0 0.00 0.00 0.00 72 1012.2
20260504211654 66 142 0.0 5.0 0.00 0.00 0.00 73 1012.3